Regional Weather Roundup
Issued by NWS

Home | Current Version | Previous Version | Graphics & Text | Print | Product List | Glossary On
Versions: 1 2 3 4 5 6 7 8 9 10 11 12 13 14 15 16 17 18 19 20 21 22 23 24 25 26 27 28 29 30 31 32 33 34 35 36 37 38 39 40 41 42 43 44 45 46 47 48 49 50
000
ASUS45 KTFX 060910
RWRMT
MONTANA REGIONAL WEATHER ROUNDUP
NATIONAL WEATHER SERVICE GREAT FALLS MT
200 AM MST TUE DEC 06 2016

NOTE: "FAIR" INDICATES FEW OR NO CLOUDS BELOW 12000 FEET WITH NO
SIGNIFICANT WEATHER AND/OR OBSTRUCTIONS TO VISIBILITY.

MTZ001>007-043-061000-
WEST OF THE DIVIDE

CITY           SKY/WX    TMP DP  RH WIND       PRES   REMARKS
KALISPELL      MOCLDY    15  11  83 NE6       30.00F WCI   6
MISSOULA       CLOUDY    21  15  78 NE3       29.98F
BUTTE          PTCLDY     4  -2  76 S5        29.88F
MULLAN PASS    CLOUDY    10   8  92 SE7       29.76F WCI  -1
ANACONDA         N/A      5   0  78 SW5       29.91F
DEER LODGE       N/A      7   3  85 CALM      29.94F
EUREKA           N/A     12  10  92 CALM      30.04S
HAMILTON         N/A     14   7  73 S6        29.95F WCI   5
LIBBY            N/A     12  10  92 CALM      30.02F
PLAINS           N/A     19  13  77 CALM      30.00
RONAN            N/A     16  10  77 CALM      30.00F
$$

MTZ008-052>055-061000-
SOUTHWEST MONTANA

CITY           SKY/WX    TMP DP  RH WIND       PRES   REMARKS
BOZEMAN        CLOUDY    14  12  92 CALM      29.96F
DILLON         CLOUDY     3  -6  66 S9        29.89F WCI -12
W YELLOWSTONE  FLURRIES  -9 -13  84 CALM      29.87F
$$

MTZ009-010-012-014-046-048-049-054-061000-
EAST SLOPES AND CENTRAL MONTANA

CITY           SKY/WX    TMP DP  RH WIND       PRES   REMARKS
CUT BANK       CLOUDY    -2  -6  83 N10       30.10R WCI -19
GREAT FALLS    CLOUDY     5   1  83 W5        30.10S
MALMSTROM AFB  FLURRIES   6   3  87 N8        30.13S WCI  -7
HELENA         CLOUDY     9   2  73 W6        30.05S WCI  -1
AUGUSTA        FLURRIES   5   0  82 N5        30.03F
BOWMANS CRNR   FLURRIES   2  -2  85 NW3       30.03S
CHOTEAU          N/A      5   0  78 MISG      30.10S
FAIRFIELD      FLURRIES   5   1  81 W1        30.08S
POWER          FLURRIES   2  -2  84 N9        30.09S WCI -13
RAYNESFORD     FLURRIES   6   1  81 W10       30.07S WCI  -9
ULM            FLURRIES   0  -3  87 N5        30.12S
$$

MTZ011-013-016-021-045-047-050-051-061000-
NORTH CENTRAL MONTANA

CITY           SKY/WX    TMP DP  RH WIND       PRES   REMARKS
HAVRE          CLOUDY     3  -3  76 NW10      30.20R WCI -12
LEWISTOWN      CLOUDY     4   1  88 NW7       30.03S WCI  -8
CHINOOK          N/A      1  -6  71 W14       30.19R WCI -17
DENTON         FLURRIES   4   1  88 NW18      30.05S WCI -16
GEYSER         CLOUDY     5   0  81 W18G28    30.03S WCI -15
GRASS RANGE      N/A      6   1  79 W18       30.00R WCI -14
JUDITH GAP       N/A     -3  -7  82 NW14      29.97S WCI -23
ROY            MOCLDY     5   1  83 MISG      30.04S
STANFORD       CLOUDY     4   0  84 NW22      29.99S WCI -18
WINIFRED       CLOUDY     3   0  88 MISG      30.06S
$$

MTZ017>020-022>027-061-062-061000-
NORTHEAST MONTANA

CITY           SKY/WX    TMP DP  RH WIND       PRES   REMARKS
GLASGOW        CLOUDY     4  -3  73 NW15G26   30.09S WCI -14
JORDAN           N/A      3  -3  76 NW12      30.09S WCI -13
SIDNEY         FLURRIES   7   1  76 NW28      30.00R WCI -16
WOLF POINT     CLOUDY     8  -2  63 NW20      30.09R WCI -11
PLENTYWOOD       N/A      5   1  85 NW23G30   29.95R VSB 1   WCI -17
POPLAR           N/A      7  -2  66 W22G28    30.05F WCI -14
$$

MTZ028>42-056>058-061000-
SOUTHCENTRAL AND SOUTHEAST MONTANA

CITY           SKY/WX    TMP DP  RH WIND       PRES   REMARKS
BAKER          CLOUDY     6   0  76 W26G37    29.95S WCI -16
BILLINGS       CLOUDY    12   4  70 VRB3      30.02S
LIVINGSTON     CLOUDY    12   7  80 NW6       29.94F WCI   3
MILES CITY     CLEAR      4  -3  73 W17       30.08R WCI -16
BIG TIMBER     CLOUDY     7   1  78 NE6       29.98S WCI  -3
FORSYTH          N/A      7   0  72 W9        30.10S WCI  -7
HARLOWTON        N/A      3  -1  84 N18       29.98R WCI -17
LAUREL           N/A     12  -1  56 W6        30.00S WCI   3
$$

REGIONAL REPORTS...DAKOTAS

CITY           SKY/WX    TMP DP  RH WIND       PRES   REMARKS
WILLISTON      LGT SNOW   8   3  80 NW24G35   29.96R VSB 1   WCI -13
MINOT          HVY SNOW  14  11  87 W36G44    29.72R VSB 1/4 WCI  -8
DICKINSON      MIX PCPN   5   0  79 NW30G38   29.83R WCI -19
BEACH          LGT SNOW   5   1  85 NW22      29.97R WCI -16
CROSBY         LGT SNOW   7   5  92 NW33G40   29.93R VSB 1   WCI -18
TIOGA          HVY SNOW   7   7 100 NW35G44   29.87S WCI -18
WATFORD CITY   LGT SNOW   7   3  85 NW14G21   29.93R WCI -10
BISMARCK       LGT SNOW  13  11  92 NW28G43   29.72R VSB 3/4 WCI  -8
GRAND FORKS    CLOUDY    30  27  88 N18       29.32F FOG     WCI  18
FARGO          CLOUDY    25  20  81 S20       29.45S WCI  11
BUFFALO SD       N/A      7   1  76 W24G35    29.84R WCI -14
RAPID CITY     CLEAR      6   0  76 SE7       29.92R WCI  -6
$$

REGIONAL REPORTS...WYOMING/IDAHO/WASHINGTON

CITY           SKY/WX    TMP DP  RH WIND       PRES   REMARKS
GILLETTE       CLEAR     -1  -5  82 VRB3      29.95S
SHERIDAN       LGT SNOW  11   6  81 CALM      29.99S
BUFFALO WY     CLOUDY     4  -3  73 W8        29.92S WCI  -9
CODY           MOCLDY     1  -4  79 NW5       29.93R
YELLOWSTONE LA   N/A      1  -3  83 W3        29.81F
IDAHO FALLS    CLEAR      9   2  73 N3        29.96F
SALMON         CLOUDY     3   0  85 CALM      29.98F
BOISE          CLOUDY    25  10  53 SE16      29.93F WCI  12
SPOKANE        CLOUDY    26  22  84 NE7       29.93F WCI  18
$$

REGIONAL REPORTS...ALBERTA

CITY           SKY/WX    TMP DP  RH WIND       PRES   REMARKS
EDMONTON       CLOUDY    -2 -11  65 NW13      30.28S WCI -21
CALGARY        CLOUDY    -2 -11  65 N20G26    30.14R WCI -25
LETHBRIDGE     CLEAR     -4  -9  77 N8        30.20S WCI -19
MEDICINE HAT   FLURRIES  -2  -8  78 W10       30.23S WCI -19
WATERTON GATE    N/A     -4  -9  77 NE3         N/A
CARDSTON         N/A     -4  -8  84 NW3         N/A
MILK RIVER       N/A     -4  -8  84 N13         N/A  WCI -23
$$

REGIONAL REPORTS...SASKATCHEWAN

CITY           SKY/WX    TMP DP  RH WIND       PRES   REMARKS
SWIFT CURRENT  FLURRIES  -4  -8  84 NW21      30.04R WCI -28
REGINA         CLOUDY     7   1  78 NW22      30.00R WCI -14
SASKATOON      CLOUDY     5  -4  66 N17       30.11R WCI -14
CYPRESS HILLS    N/A     -9 -15  77 NW14G26     N/A  WCI -31
VAL MARIE        N/A      0  -8  71 NW16        N/A  WCI -21
ROCKGLEN         N/A     -2  -6  84 NW14G22     N/A  WCI -21
$$



USA.gov is the U.S. government's official web portal to all federal, state and local government web resources and services.